Regional Weather Roundup
Issued by NWS

Current Version | Previous Version | Text Only | Print | Product List | Glossary Off
Versions: 1 2 3 4 5 6 7 8 9 10 11 12 13 14 15 16 17 18 19 20 21 22 23 24 25 26 27 28 29 30 31 32 33 34 35 36 37 38 39 40 41 42 43 44 45 46 47 48 49 50

000
ASUS44 KMEG 310010
RWRTN
TENNESSEE HOURLY STATE WEATHER ROUNDUP
NATIONAL WEATHER SERVICE MEMPHIS TN
700 PM CDT SUN AUG 30 2015

TNZ002-004-019-021-049-052-054-088>092-310100-
WEST TENNESSEE

CITY           SKY/WX    TMP DP  RH WIND       PRES   REMARKS
MEMPHIS INTL   MOCLDY    82  69  64 SE8       30.01R
NWS MEMPHIS      N/A     76 N/A N/A MISG        N/A
JACKSON        TSTM      70  69  97 SE3       30.05F FOG
DYERSBURG      MOCLDY   N/A N/A N/A MISG        N/A
UNION CITY     CLEAR     75  68  78 S10       30.03F
PARIS          CLEAR     70  68  94 SE5       30.06F
LEXINGTON      CLOUDY    75  73  94 CALM      30.06S
$$

TNZ008-025-027-028-033-062-065-066-310100-
NORTH MIDDLE TENNESSEE

CITY           SKY/WX    TMP DP  RH WIND       PRES   REMARKS
NASHVILLE      MOCLDY    75  61  61 SE5       30.08S
CLARKSVILLE    LGT RAIN  74  70  87 W6        30.06F
SMYRNA         MOCLDY    77  67  71 CALM      30.09S
COOKEVILLE     CLEAR     73  72  94 CALM      30.09R
CROSSVILLE     CLOUDY    72  66  81 MISG      30.13R
$$

TNZ061-075-076-078-094-096-097-310100-
SOUTH MIDDLE TENNESSEE

CITY           SKY/WX    TMP DP  RH WIND       PRES   REMARKS
FAYETTEVILLE   CLEAR     72  64  78 CALM      30.09S
TULLAHOMA      CLEAR     70  66  88 NW3       30.11S
WINCHESTER     PTCLDY    72  66  83 CALM      30.10R
MCMINNVILLE    MOCLDY    72  70  94 CALM      30.10R
COLUMBIA       CLEAR     75  66  73 CALM      30.07S
SHELBYVILLE    MOCLDY    73  70  88 NE3       30.10S
$$

TNZ017-018-042-046-047-310100-
NORTHEAST TENNESSEE

CITY           SKY/WX    TMP DP  RH WIND       PRES   REMARKS
TRI CITIES     CLOUDY    74  60  61 E5        30.12F
ELIZABETHTON   CLEAR     70  61  73 CALM      30.14S
$$

TNZ012-013-036-069-073-074-310100-
CENTRAL EAST TENNESSEE

CITY           SKY/WX    TMP DP  RH WIND       PRES   REMARKS
KNOXVILLE      CLOUDY    71  68  90 CALM      30.06S
OAK RIDGE      CLOUDY    77  66  68 S3        30.09S
GATLINBURG     CLEAR     73  59  60 CALM      30.08R
MORRISTOWN     CLEAR     73  63  68 E6        30.11S
$$

TNZ083-085-099-310100-
SOUTHEAST TENNESSEE

CITY           SKY/WX    TMP DP  RH WIND       PRES   REMARKS
CHATTANOOGA    CLOUDY    76  66  71 SE3       30.08S
$$

SKY/WX REPORTED AS FAIR MEANS FEW OR NO CLOUDS BELOW
12 THOUSAND FEET.




USA.gov is the U.S. government's official web portal to all federal, state and local government web resources and services.